Details From KLAX - Los Angeles Intl
To GCGM - La Gomera
Flight Number -
Tags decoded
Created
Modified
Stats Distance 4,996 nm / 9,252 km
Max Altitude 0 ft / 0 m
Waypoints 3
Social Downloads 0
Likes 0
Share VATSIM

Download

Looking for another format? Having issues loading an existing format? Contact us
Advertisement - Login to hide

Notes

Requested: KLAX RYLIE GOMER GCGM

Route

KLAX RYLIE GCGM

ID Type Via Altitude Latitude Longitude Leg Dist Tot Dist Heading (true) Name
O KLAX APT - 0 ft / 0 m 33.94313˚ -118.40892˚ - 0 nm - Los Angeles Intl
RYLIE FIX - 0 ft / 0 m 38.33731˚ -101.82748˚ 844 nm 844 nm 67° / 77° -
O GCGM APT - 0 ft / 0 m 28.02963˚ -17.21460˚ 4150 nm 4995 nm 70° / 123° La Gomera

Altitude Profile

Advertisement - Login to hide

Weather


0- 5 10 15 20 25 30 35+ Temperature / ° C

Clouds and Precipitation
Forecast for 2018-05-20 12:00 UTC. Updated an hour ago

Ground ~20,000 ft ~40,000 ft Winds

KLAX

Details ICAO KLAX (LAX)
Name Los Angeles Intl
Region United States
Timezone America/Los_Angeles (UTC-7.0)
Stats Elevation 126 ft / 38 m (AMSL)
Location 33.943130° -118.408917°
Runways 4
Magnetic Variation 11.969° E

METAR

KLAX 200953Z 23004KT 10SM FEW014 OVC025 16/12 A2990 RMK AO2 SLP123 T01560122

Decode

TAF

TAF AMD KLAX 200840Z 2009/2112 25006KT P6SM SCT018 OVC025 FM201400 14006KT P6SM OVC022 FM202000 26010KT P6SM BKN025 FM210000 26012KT P6SM SCT025 FM210300 26008KT P6SM BKN025

Decode

Departure Runways

ID Width Length Bearing (true) Bearing (mag) Surface Threshold Offset Overrun Length
06L 151 ft / 46 m 8,907 ft / 2,715 m 82.98° 71.01° Concrete 0 ft / 0 m 0 ft / 0 m
06R 151 ft / 46 m 10,266 ft / 3,129 m 82.95° 70.98° Concrete 331 ft / 101 m 0 ft / 0 m
07L 151 ft / 46 m 12,069 ft / 3,679 m 82.96° 70.99° Concrete 0 ft / 0 m 0 ft / 0 m
07R 200 ft / 61 m 11,081 ft / 3,377 m 82.96° 70.99° Concrete 0 ft / 0 m 397 ft / 121 m
24L 151 ft / 46 m 10,266 ft / 3,129 m 262.97° 251.00° Concrete 0 ft / 0 m 174 ft / 53 m
24R 151 ft / 46 m 8,907 ft / 2,715 m 263.00° 251.03° Concrete 0 ft / 0 m 305 ft / 93 m
25L 200 ft / 61 m 11,081 ft / 3,377 m 262.98° 251.01° Concrete 0 ft / 0 m 1,053 ft / 321 m
25R 151 ft / 46 m 12,069 ft / 3,679 m 262.98° 251.01° Concrete 958 ft / 292 m 154 ft / 47 m

GCGM

Details ICAO GCGM (GMZ)
Name La Gomera
Region Canary Islands
Timezone Atlantic/Canary (UTC+1.0)
Stats Elevation 715 ft / 218 m (AMSL)
Location 28.029627° -17.214603°
Runways 1
Magnetic Variation 5.309° W

METAR

GCGM 201030Z VRB05KT 9999 FEW035 21/09 Q1018 RMK R09/VRB05KT ARP/VRB05KT

Decode

TAF

TAF GCGM 200800Z 2009/2109 23008KT 9999 FEW030 TX22/2015Z TN18/2105Z

Decode

Destination Runways

ID Width Length Bearing (true) Bearing (mag) Surface Threshold Offset Overrun Length
09 98 ft / 30 m 4,914 ft / 1,498 m 81.17° 86.48° Asphalt 0 ft / 0 m 0 ft / 0 m
27 98 ft / 30 m 4,914 ft / 1,498 m 261.18° 266.49° Asphalt 0 ft / 0 m 0 ft / 0 m

Popular Alternatives